Altoona, PA

11:19 PM EDT on September 19, 2019 (GMT -0400)
Altoona-Blair County

Weather History for KAOO - May, 2019

Change the Weather History Date:

Sunday, May 19, 2019

  Actual Average Record
Temperature  
Mean Temperature 72 °F 59 °F  
Max Temperature 85 °F 70 °F 92 °F (1996)
Min Temperature 58 °F 48 °F 31 °F (2002)
Degree Days  
Heating Degree Days 0 7  
Month to date heating degree days 99 174  
Since 1 July heating degree days 5653 6092  
Cooling Degree Days 7 1  
Month to date cooling degree days 20 9  
Year to date cooling degree days 20 15  
Growing Degree Days 22 (Base 50)    
Moisture  
Dew Point 63 °F    
Average Humidity 74    
Maximum Humidity 97    
Minimum Humidity 51    
Precipitation  
Precipitation 0.08 in 0.12 in 1.32 in (2000)
Month to date precipitation 4.16 2.25  
Year to date precipitation 16.97 12.72  
Sea Level Pressure  
Sea Level Pressure 29.94 in    
Wind  
Wind Speed 7 mph (SSW)    
Max Wind Speed 26 mph    
Max Gust Speed 35 mph    
Visibility 7 miles    
Events Rain , Thunderstorm    
T = Trace of Precipitation, MM = Missing Value Source: NWS Daily Summary

Daily Weather History Graph

Daily Weather History Graph

Search for Another Location

Airport or City:

Astronomy

May. 19, 2019 Rise Set
Actual Time 5:53 AM EDT 8:26 PM EDT
Civil Twilight 5:22 AM EDT 8:57 PM EDT
Nautical Twilight 4:44 AM EDT 9:36 PM EDT
Astronomical Twilight 4:00 AM EDT 10:19 PM EDT
Moon 9:24 PM EDT (5/19) 6:38 AM EDT (5/19)
Length of Visible Light 15h 34m
Length of Day
14h 32m
Full, 99% of the Moon is Illuminated
May 19
Full
May 26
Last Quarter
Jun 3
New
Jun 10
First Quarter
Jun 17
Full

Hourly Weather History & Observations

Time (EDT) Temp. Heat Index Dew Point Humidity Pressure Visibility Wind Dir Wind Speed Gust Speed Precip Events Conditions
12:53 AM 66.0 °F - 62.1 °F 87% 30.00 in 8.0 mi Calm Calm - N/A   Clear
1:53 AM 68.0 °F - 62.1 °F 81% 29.99 in 10.0 mi Variable 5.8 mph - N/A   Clear
2:53 AM 62.1 °F - 59.0 °F 90% 29.99 in 9.0 mi SW 6.9 mph - N/A   Clear
3:53 AM 62.1 °F - 59.0 °F 90% 29.99 in 5.0 mi ENE 3.5 mph - N/A   Clear
4:53 AM 63.0 °F - 61.0 °F 93% 29.99 in 4.0 mi Calm Calm - N/A   Clear
5:30 AM 60.1 °F - 57.9 °F 93% 30.02 in 1.8 mi West 3.5 mph - N/A   Clear
5:45 AM 59.0 °F - 57.9 °F 96% 30.02 in 2.5 mi Calm Calm - N/A   Clear
5:53 AM 60.1 °F - 59.0 °F 96% 30.00 in 1.5 mi Calm Calm - N/A   Clear
6:47 AM 62.6 °F - 60.8 °F 94% 30.02 in 3.0 mi SW 3.5 mph - N/A   Clear
6:53 AM 63.0 °F - 61.0 °F 93% 30.00 in 4.0 mi West 3.5 mph - N/A   Clear
7:00 AM 63.0 °F - 61.0 °F 93% 30.03 in 1.8 mi WNW 4.6 mph - N/A   Clear
7:27 AM 64.0 °F - 62.1 °F 93% 30.02 in 2.0 mi WNW 3.5 mph - N/A   Clear
7:46 AM 66.0 °F - 63.0 °F 90% 30.02 in 4.0 mi Calm Calm - N/A   Clear
7:53 AM 66.0 °F - 63.0 °F 90% 29.99 in 4.0 mi Calm Calm - N/A   Clear
8:53 AM 71.1 °F - 64.0 °F 78% 29.99 in 10.0 mi SSW 3.5 mph - N/A   Clear
9:53 AM 73.9 °F - 64.9 °F 73% 29.99 in 10.0 mi SSW 6.9 mph - N/A   Clear
10:53 AM 75.9 °F - 64.0 °F 67% 29.98 in 10.0 mi South 6.9 mph - N/A   Scattered Clouds
11:53 AM 75.9 °F - 66.0 °F 71% 29.98 in 10.0 mi South 6.9 mph - N/A   Mostly Cloudy
12:53 PM 80.1 °F 82.3 °F 66.9 °F 64% 29.96 in 10.0 mi SW 10.4 mph 16.1 mph N/A   Clear
1:53 PM 82.9 °F 85.4 °F 66.9 °F 58% 29.92 in 10.0 mi SSE 11.5 mph - N/A   Clear
2:53 PM 84.0 °F 86.5 °F 66.9 °F 56% 29.89 in 10.0 mi SSW 16.1 mph 21.9 mph N/A   Clear
3:53 PM 84.0 °F 85.8 °F 64.9 °F 53% 29.86 in 10.0 mi South 12.7 mph 20.7 mph N/A   Mostly Cloudy
4:53 PM 82.0 °F 83.8 °F 64.9 °F 56% 29.84 in 10.0 mi South 17.3 mph 23.0 mph N/A   Clear
5:08 PM 77.0 °F - 64.9 °F 66% 29.90 in 3.0 mi SW 24.2 mph 34.5 mph 0.03 in Rain , Thunderstorm Thunderstorms and Rain
5:14 PM 73.0 °F - 66.0 °F 79% 29.89 in 1.8 mi SSW 16.1 mph 34.5 mph 0.07 in Rain , Thunderstorm Heavy Thunderstorms and Rain
5:20 PM 73.0 °F - 66.9 °F 81% 29.90 in 3.0 mi SSW 15.0 mph 23.0 mph 0.08 in Rain , Thunderstorm Light Thunderstorms and Rain
5:41 PM 73.0 °F - 66.0 °F 79% 29.88 in 10.0 mi South 15.0 mph 24.2 mph 0.08 in Rain , Thunderstorm Light Rain
5:53 PM 73.9 °F - 64.9 °F 73% 29.85 in 10.0 mi South 12.7 mph - 0.08 in   Mostly Cloudy
6:53 PM 73.9 °F - 64.9 °F 73% 29.85 in 10.0 mi SSW 5.8 mph - N/A   Scattered Clouds
7:53 PM 73.0 °F - 64.9 °F 76% 29.86 in 10.0 mi SSW 4.6 mph - N/A   Scattered Clouds
8:53 PM 70.0 °F - 62.1 °F 76% 29.87 in 10.0 mi WSW 4.6 mph - N/A   Scattered Clouds
9:53 PM 68.0 °F - 64.0 °F 87% 29.86 in 10.0 mi ESE 3.5 mph - N/A   Mostly Cloudy
10:53 PM 69.1 °F - 62.1 °F 78% 29.86 in 10.0 mi SSW 9.2 mph - N/A   Clear
11:53 PM 68.0 °F - 62.1 °F 81% 29.86 in 10.0 mi SW 8.1 mph - N/A   Clear